Temp
74 72 70 69 65 64 63 63 66 69 71 72 72 72 72 74 74 72 72 69 69 74
67 66 66 65 64 63 63 64 67 68 69 71 71 72 71 72 70 70 71 71 69 72
63 63 62 62 61 61 63 64 65 64 64 64 65 66 68 71 65 66 71 70 65 66
62 62 62 62 62 63 63 64 64 65 65 67 68 68 65 65 68 68 66 66 68 67
62 63 62 63 63 65 64 64 64 67 66 68 64 66 69 70 70 70 69 69 68 68
62 62 61 62 62 63 63 64 66 65 64 64 66 67 69 69 69 69 70 69 68 68
61 62 63 64 64 64 65 67 67 68 66 69 66 69 68 69 69 69 70 70 69 69
64 65 65 64 64 64 65 66 67 66 69 70 70 74 71 71 70 69 69 70 70 71
66 66 66 66 65 65 66 64 64 65 67 68 70 67 64 66 70 71 69 69 70 70
69 68 68 68 67 67 67 67 67 67 68 68 70 64 62 63 68 69 70 69 69 69
68 69 69 69 68 68 69 68 68 68 69 69 71 64 61 62 68 70 70 69 69 68
69 69 68 68 68 68 68 69 69 70 69 69 70 62 59 61 70 71 70 71 69 69
69 68 68 68 68 69 68 68 71 69 70 67 68 63 59 61 72 70 72 71 70 63
69 68 69 68 69 68 68 68 67 68 69 69 68 69 59 56 68 71 72 72 72 72
MSLP
1018.65 1018.85 1019.53 1020.26 1021.02 1021.75 1021.94 1021.87 1022.38 1022.31 1022.33 1022.01 1021.58 1021.50 1021.58 1021.38 1021.45 1021.60 1021.75 1021.75 1021.52 1021.12
1019.73 1019.44 1019.46 1020.50 1021.23 1021.56 1022.13 1021.96 1022.20 1022.42 1022.50 1022.57 1022.32 1021.97 1021.81 1021.82 1021.94 1022.02 1022.26 1022.19 1022.12 1021.69
1020.62 1020.84 1018.41 1019.93 1021.01 1021.25 1022.38 1022.69 1022.44 1022.34 1022.39 1022.39 1022.68 1022.48 1022.09 1022.26 1022.81 1022.43 1022.41 1022.48 1022.46 1022.13
1021.74 1021.57 1020.15 1020.42 1021.45 1021.93 1022.38 1022.34 1022.27 1022.44 1022.74 1022.51 1022.21 1022.24 1022.50 1022.44 1022.76 1022.77 1022.84 1022.62 1022.31 1021.99
1020.99 1021.51 1021.79 1021.53 1022.03 1022.38 1022.45 1022.15 1022.24 1022.36 1022.44 1022.43 1022.42 1022.28 1022.19 1022.27 1022.65 1022.46 1022.52 1022.23 1022.08 1021.83
1021.41 1021.22 1022.31 1022.70 1022.84 1022.74 1022.90 1022.01 1022.42 1022.58 1022.69 1022.30 1022.18 1022.08 1021.93 1022.23 1022.23 1022.27 1022.08 1022.07 1021.81 1021.62
1021.44 1021.34 1022.03 1022.31 1022.57 1022.60 1022.45 1021.98 1022.26 1022.23 1022.19 1022.27 1022.34 1022.32 1021.97 1021.85 1021.93 1022.02 1021.91 1021.62 1021.49 1021.30
1021.43 1021.60 1022.06 1022.12 1022.50 1022.77 1022.33 1022.33 1021.86 1022.06 1021.94 1022.02 1021.84 1021.51 1021.69 1021.60 1021.51 1021.81 1021.66 1021.19 1020.82 1020.56
1021.13 1021.56 1021.94 1022.10 1022.54 1022.54 1022.18 1021.90 1021.88 1021.88 1021.84 1021.55 1021.30 1021.04 1021.27 1021.73 1021.43 1021.12 1020.96 1020.40 1019.89 1020.24
1021.30 1021.55 1021.85 1022.03 1022.06 1021.95 1021.78 1021.71 1021.58 1021.60 1021.49 1021.21 1020.91 1020.70 1020.93 1021.27 1021.04 1020.46 1019.96 1019.77 1019.69 1019.35
1021.20 1021.13 1021.28 1021.33 1021.39 1021.45 1021.33 1021.25 1021.10 1020.95 1020.91 1020.71 1020.36 1020.32 1020.37 1020.49 1020.08 1019.83 1019.34 1019.21 1019.15 1018.93
1020.76 1020.85 1021.02 1021.13 1021.16 1021.06 1021.08 1020.79 1020.62 1020.53 1020.40 1020.30 1019.91 1019.72 1019.54 1019.85 1019.32 1018.90 1018.69 1018.48 1018.45 1018.46
1020.60 1020.79 1020.83 1020.80 1020.69 1020.58 1020.55 1020.48 1020.38 1019.94 1019.69 1019.46 1019.47 1018.90 1018.68 1019.04 1018.58 1018.17 1017.92 1017.73 1017.57 1017.78
1020.26 1020.29 1020.35 1020.39 1020.23 1020.19 1020.17 1020.12 1019.75 1019.19 1018.99 1018.76 1018.46 1018.08 1017.90 1018.15 1018.21 1017.54 1016.98 1016.78 1016.73 1016.57
Wind_Speed
6 5 6 7 7 5 5 6 3 4 4 5 7 7 6 6 6 7 7 8 7 5
5 8 10 12 8 7 6 4 5 5 5 6 6 6 7 7 7 7 6 7 7 5
8 7 11 8 9 10 6 2 4 5 4 4 4 4 6 7 5 5 5 5 4 5
3 5 6 9 7 8 8 9 9 7 6 6 7 6 5 6 5 6 3 3 4 5
9 7 5 6 6 6 4 3 4 6 5 7 4 4 4 4 3 3 5 6 6 7
7 6 4 4 3 4 4 6 6 5 3 4 2 3 3 2 3 5 6 7 8 9
5 7 8 7 6 5 4 5 4 4 3 2 3 5 4 4 5 7 8 8 8 9
5 5 3 4 3 3 2 3 2 3 4 5 5 5 5 6 7 9 10 10 9 9
7 7 6 6 6 5 5 4 4 5 6 6 6 7 10 11 9 10 10 10 8 9
8 7 6 5 5 5 6 6 6 7 8 9 9 10 14 12 10 9 9 9 8 8
7 6 5 5 6 6 6 7 7 8 8 9 9 11 12 9 8 8 9 9 8 8
7 6 6 7 7 6 6 7 8 8 9 9 11 8 11 5 7 8 10 8 8 7
7 7 8 9 7 6 6 8 8 9 9 10 11 11 12 7 6 8 8 7 8 9
6 6 6 7 7 7 8 8 9 9 10 10 10 11 11 10 8 8 7 7 6 5
Wind_Direction
147 137 117 103 97 91 94 84 93 80 71 83 93 91 86 80 78 76 72 65 51 49
78 111 115 106 101 102 94 108 125 102 86 63 69 83 92 86 92 86 70 68 58 51
19 25 99 106 116 102 103 130 93 96 94 87 101 98 88 93 85 91 74 64 51 35
154 161 110 108 118 133 156 167 168 171 165 137 116 97 101 97 94 57 56 55 21 24
145 138 129 136 159 179 163 148 148 168 147 138 119 101 92 88 51 25 347 350 342 338
138 116 142 167 178 195 180 145 143 151 163 143 149 172 165 265 309 311 316 312 309 309
168 156 176 180 176 174 178 151 156 162 163 200 226 245 254 267 289 290 286 285 287 295
160 149 136 150 182 199 212 207 190 254 241 261 265 263 256 282 276 275 282 287 286 284
158 169 177 173 190 208 224 240 261 258 262 273 269 264 253 260 275 275 275 282 301 295
173 182 192 197 216 239 252 264 265 265 262 266 268 252 252 243 254 263 274 284 287 294
194 203 208 226 243 254 259 259 262 262 256 263 272 257 252 256 261 257 262 266 274 282
213 225 231 238 245 254 261 265 267 269 271 265 274 260 254 237 278 266 266 260 257 274
204 221 229 236 248 254 254 269 275 276 272 271 272 274 261 205 267 268 266 261 258 232
227 242 261 269 263 266 267 272 272 273 280 273 260 269 262 201 256 262 263 260 261 263